STARLINK-34115, 63972

Orbit data source: Space-Track

STARLINK-34115, 63972 is a payload satellite owned by SpaceX/Seattle (US) in LEO that was launched on Tue, 13 May 2025 UTC via an FALCON 9 launch vehicle from the Air Force Eastern Test Range (AFETR). Payload-class satellites include a variety of spacecraft equipped with specific instruments for various scientific and technological missions. These include communications satellites like Starlink; space stations such as the ISS; scientific satellites like the Hubble; Earth observation satellites from companies like Planet Labs, Umbra, and HawkEye 360; GPS; miniature CubeSats for education and research; and military/defense satellites.

Loading next visibility...
Identifier
63972, 2025-099W
Orbit
LEO
Country
Flag of USUS
Related business
Manufacturer
SpaceX/Seattle
Mission
Operational Commercial Communications
Bus & Motor
STARLINK V2MO, Unknown motor
Mass
575 kg wet, ~530 kg dry
Launch date (UTC)
2025-05-13 (11 months ago)
Launch vehicle
FALCON 9
Launch site
Air Force Eastern Test Range (AFETR)
Object type
Payload
Rocket body
Debris
Shape & HBR
Box + 2 Pan, 17.7 m
Radar Cross Section
36.964 m², Large (>1 m²)

Expand to show TLE details & history
Last TLE update: 1 day ago

TLE from 1 day ago
0 STARLINK-34115
1 63972U 25099W   26093.11441247  .00042103  00000-0  15283-2 0  9997
2 63972  43.0019  34.6525 0000612 157.6982 202.3896 15.27633142 51110
Epoch: 2026-04-03T02:44Z
TLE epoch observation values (Epoch: 2026-04-03T02:44:45.237Z)
Latitude
-0.00004°
Longitude
162.01078°
Altitude
483.054 km
Speed
7.625 km/s
True Right ascension
02h 18m 36s
True Declination
0° 00' 00"
Sunlit
Object was in daylight at epoch
Visualization orbit readout
Latitude
Unknown
Longitude
Unknown
Altitude
Unknown
Speed
Unknown
Apparent Right ascension
Unknown
Apparent Declination
Unknown
Sunlit
N/A
Visualization observer readout
Local Sidereal Time
18:02:03
Azimuth
Unknown
Elevation
Unknown
Doppler factor
Unknown
Orbital elements
Apogee altitude
485.255 km
Perigee altitude
484.415 km
Semi-major axis
6,862.972 km
Eccentricity
0.00006
Inclination
43.0019°
RAAN
34.6525°
Arg. of periapsis
157.6982°
True anomaly
202.38693°
Mean anomaly
202.3896°
Eccentric anomaly
202.38826°
Mean motion
3.81746 °/min
Orbital period
94.3 mins
BSTAR
0.0015283
Loading maneuver chart data...
Computing Atmospheric mass density...
Loading historical data...
Loading historical data...
Loading historical data...
Loading historical data...
Loading historical data...
Loading historical data...
Loading historical data...

Documentation

Showing up to 5 results
|